Regional Weather Roundup
Issued by NWS

Home | Current Version | Previous Version | Text Only | Print | Product List | Glossary On
Versions: 1 2 3 4 5 6 7 8 9 10 11 12 13 14 15 16 17 18 19 20 21 22 23 24 25 26 27
000
ASUS46 KSEW 250910
RWRWA

WASHINGTON REGIONAL WEATHER ROUNDUP
NATIONAL WEATHER SERVICE SEATTLE WA
200 AM PDT TUE JUL 25 2017

NOTE:"FAIR" INDICATES FEW OR NO CLOUDS BELOW 12,000 FEET WITH NO
SIGNIFICANT WEATHER AND/OR OBSTRUCTIONS TO VISIBILITY.

WAZ507-509-555>559-251000-
SEATTLE, TACOMA, EVERETT, AND VICINITY

CITY           SKY/WX    TMP DP  RH WIND       PRES   REMARKS
EVERETT        CLEAR     61  50  67 N5        30.01S
BOEING FIELD   CLEAR     66  54  65 CALM      29.98F
RENTON         CLEAR     67  56  67 N3        29.98S
SEATAC AIRPORT CLEAR     64  51  62 N6        30.00S
JBLM-MCCHORD   CLEAR     56  54  90 CALM      29.99S
PUYALLUP       FAIR      55  54  94 CALM      30.00S
BREMERTON      CLEAR     54  49  83 CALM      30.00S
JBLM-FT LEWIS  CLEAR     61  54  78 CALM      29.99S
TACOMA NARROWS CLEAR     61  50  67 CALM      30.00F
$$

WAZ001-503-506-510-514-515-251000-
NORTH INTERIOR

CITY           SKY/WX    TMP DP  RH WIND       PRES   REMARKS
BELLINGHAM     CLEAR     58  55  90 CALM      29.98R
FRIDAY HARBOR  CLEAR     50  50 100 CALM      30.00R
EASTSOUND      CLEAR     57  52  82 S3        29.99R
PORT ANGELES   CLEAR     54  50  86 CALM      30.00S
EDIZ HOOK      FAIR      55  51  89 W8        29.99S
PORT TOWNSEND  FAIR      52  50  93 CALM      30.00R
NAS WHIDBEY    CLEAR     55  49  80 SE6       30.03S
ARLINGTON      CLEAR     54  50  86 CALM      30.00S
BURLINGTON     CLEAR     55  52  88 CALM      30.00R
$$

WAZ020-022-039-040-504-511-512-251000-
SOUTHWEST INTERIOR

CITY           SKY/WX    TMP DP  RH WIND       PRES   REMARKS
SHELTON        CLEAR     59  55  87 W5        29.98S
OLYMPIA        CLEAR     57  54  89 CALM      29.99S
CHEHALIS       FAIR      57  57 100 CALM      29.99S
KELSO          CLEAR     60  55  83 CALM      29.99S
VANCOUVER      CLEAR     67  56  67 N3        29.94S
SCAPPOOSE, OR  CLEAR     66  52  60 NW9       29.94S
PORTLAND, OR   CLEAR     66  55  67 VRB3      29.95R
$$

WAZ021-516-517-251000-
WASHINGTON COAST

CITY           SKY/WX    TMP DP  RH WIND       PRES   REMARKS
FORKS          CLEAR     52  48  86 CALM      30.01S
HOQUIAM        PTCLDY    57  54  89 W5        30.02S
ASTORIA, OR    CLOUDY    57  54  89 W8        30.02S
$$

WAZ019-023-024-040-567>569-251000-
CASCADE MOUNTAINS AND COLUMBIA GORGE

CITY           SKY/WX    TMP DP  RH WIND       PRES   REMARKS
STAMPEDE PASS  CLEAR     55  50  83 SW3       30.09F
TROUTDALE, OR  PTCLDY    65  56  72 W5        29.94S
HOOD RIVER, OR PTSUNNY   64  55  72 CALM      29.92R
THE DALLES, OR MOCLDY    73  55  53 CALM      29.87R
$$

WAZ026-027-041>044-520-521-251000-
EAST SLOPES

CITY           SKY/WX    TMP DP  RH WIND       PRES   REMARKS
OMAK           CLEAR     66  40  38 N9        29.98S
WENATCHEE      CLEAR     69  44  40 NW5       29.95R
ELLENSBURG     PTCLDY    60  44  55 N5        29.96F
YAKIMA         PTCLDY    69  46  43 W8        29.92S
SUNNYSIDE ARPT   N/A     56  49  78 CALM      29.89S
YAKIMA TC      FAIR      66  42  42 NE6       29.92S
$$

WAZ028-034-035-251000-
COLUMBIA BASIN

CITY           SKY/WX    TMP DP  RH WIND       PRES   REMARKS
EPHRATA        CLEAR     71  37  28 NW8       29.93R
MOSES LAKE     PTCLDY    62  42  47 N6        29.93R
PASCO          MOCLDY    59  55  87 N5        29.88S
RICHLAND ARPT  PTSUNNY   63  53  69 CALM      29.88R
HERMISTON, OR  MOCLDY    62  43  49 SE6       29.88S
$$

WAZ036>038-251000-
NORTHEAST WASHINGTON

CITY           SKY/WX    TMP DP  RH WIND       PRES   REMARKS
SPOKANE GEIGER PTCLDY    66  37  34 CALM      29.97S
SPOKANE FELTS  PTCLDY    60  41  49 CALM      29.96S
FAIRCHILD AFB  PTCLDY    63  35  35 N6        29.97S
COEURDALENE,ID CLEAR     56  41  57 NE6       29.98R
DEER PARK      PTCLDY    50  36  58 N3        29.97S
$$

WAZ029>033-251000-
SOUTHEAST WASHINGTON

CITY           SKY/WX    TMP DP  RH WIND       PRES   REMARKS
PULLMAN        MOCLDY    55  39  54 CALM      29.98S
LEWISTON, ID   PTCLDY    67  32  27 SE3       29.91S
WALLA WALLA    MOCLDY    69  39  33 E9        29.90S
PENDLETON, OR  PTCLDY    61  36  39 SE9       29.91S
$$




USA.gov is the U.S. government's official web portal to all federal, state and local government web resources and services.